This is the latest recevied weather packets stored in our database for station/object YM7KGL-1. If no packets are shown the sender has not sent any weather packets the latest 10 day(s).
| Time | Temp. | Humidity | Pressure | Rain* | Wind** | Luminosity | Snow |
|---|---|---|---|---|---|---|---|
| 1777521967 | 12.22° C | 52% | 1018.8 hPa | - | - | - | - |
| 1777521067 | 11.11° C | 52% | 1018.9 hPa | - | - | - | - |
| 1777520166 | 10.56° C | 52% | 1018.7 hPa | - | - | - | - |
| 1777519897 | 10.56° C | 52% | 1018.8 hPa | - | - | - | - |
| 1777519554 | 10.56° C | 52% | 1018.5 hPa | - | - | - | - |
| 1777518996 | 10.56° C | 52% | 1018.7 hPa | - | - | - | - |
| 1777518095 | 10.56° C | 52% | 1018.6 hPa | - | - | - | - |
| 1777517195 | 10.56° C | 52% | 1018.6 hPa | - | - | - | - |
| 1777516295 | 10.56° C | 52% | 1018.5 hPa | - | - | - | - |
| 1777515960 | 10.56° C | 51% | 1018.5 hPa | - | - | - | - |
| 1777515059 | 10.56° C | 52% | 1018.5 hPa | - | - | - | - |
| 1777514159 | 10.56° C | 52% | 1018.5 hPa | - | - | - | - |
| 1777513259 | 10.56° C | 52% | 1018.5 hPa | - | - | - | - |
| 1777512358 | 10.56° C | 51% | 1018.5 hPa | - | - | - | - |
| 1777512055 | 10.56° C | 51% | 1018.6 hPa | - | - | - | - |
| 1777511154 | 10.56° C | 51% | 1018.6 hPa | - | - | - | - |
| 1777510254 | 11.11° C | 51% | 1018.6 hPa | - | - | - | - |
| 1777509353 | 11.11° C | 51% | 1018.5 hPa | - | - | - | - |
| 1777508453 | 11.11° C | 51% | 1018.6 hPa | - | - | - | - |
| 1777508070 | 11.11° C | 51% | 1018.5 hPa | - | - | - | - |
| 1777507239 | 11.67° C | 51% | 1018.5 hPa | - | - | - | - |
| 1777507170 | 11.11° C | 51% | 1018.5 hPa | - | - | - | - |
| 1777502312 | 11.67° C | 51% | 1018.8 hPa | - | - | - | - |
| 1777501411 | 11.67° C | 51% | 1019 hPa | - | - | - | - |
| 1777500511 | 12.22° C | 51% | 1019.2 hPa | - | - | - | - |
* Rain since midnight (hover to see other rain measurements)
** Current wind speed in m/s (hover to see current wind gust speed)